Date,TemperatureHighF,TemperatureAvgF,TemperatureLowF,DewpointHighF,DewpointAvgF,DewpointLowF,HumidityHigh,HumidityAvg,HumidityLow,PressureMaxIn,PressureMinIn,WindSpeedMaxMPH,WindSpeedAvgMPH,GustSpeedMaxMPH,PrecipitationSumIn
2013-1-1,57,43,34,43,38,33,95,84,51,30.28,30.17,4,0,4,0.00
2013-1-2,55,39,31,44,36,30,98,90,61,30.27,30.17,4,0,4,0.00
2013-1-3,59,40,29,44,36,28,98,86,53,30.30,30.17,4,0,4,0.00
2013-1-4,58,41,29,46,37,28,98,87,61,30.34,30.20,4,0,4,0.00
2013-1-5,62,46,31,43,38,30,98,78,45,30.29,30.08,4,0,4,0.00
2013-1-6,53,47,44,47,44,41,95,89,77,30.17,30.07,4,1,4,0.31
2013-1-7,54,46,37,45,42,36,95,87,64,30.29,30.13,4,0,4,0.00
2013-1-8,59,44,33,47,40,33,98,88,63,30.26,30.17,4,0,4,0.00
2013-1-9,64,48,36,52,45,35,98,88,66,30.18,29.93,4,0,4,0.00
2013-1-10,51,43,35,47,37,33,97,82,55,30.17,30.02,12,2,12,0.08
2013-1-11,50,38,28,38,33,27,97,81,52,30.25,30.13,9,1,9,0.00
2013-1-12,51,38,29,37,32,28,96,80,52,30.26,30.14,4,0,4,0.00
2013-1-13,50,37,27,36,31,25,97,81,53,30.26,30.15,4,0,4,0.00
2013-1-14,51,36,25,33,28,24,96,77,41,30.43,30.22,4,0,4,0.00
2013-1-15,56,38,26,35,30,25,94,75,40,30.52,30.40,5,1,5,0.00
2013-1-16,59,40,27,38,33,26,96,77,43,30.47,30.28,4,0,4,0.00
2013-1-17,65,43,29,42,36,28,97,78,41,30.31,30.17,4,0,4,0.00
2013-1-18,67,45,31,46,38,30,97,79,37,30.25,30.14,4,0,4,0.00
2013-1-19,66,45,31,45,38,30,97,79,44,30.29,30.16,4,0,4,0.00
2013-1-20,66,46,31,46,38,30,97,79,47,30.26,30.13,4,0,4,0.00
2013-1-21,70,47,32,47,39,31,97,77,34,30.20,30.10,5,0,5,0.00
2013-1-22,72,48,34,46,39,32,95,74,26,30.17,30.02,4,0,4,0.00
2013-1-23,71,53,40,46,41,37,90,66,33,30.08,30.00,8,0,8,0.00
2013-1-24,61,56,51,56,53,46,97,90,69,30.18,30.02,5,1,5,0.15
2013-1-25,62,55,52,56,54,51,97,93,81,30.18,30.02,4,0,4,0.01
2013-1-26,61,56,52,58,55,48,99,95,82,30.03,29.94,7,0,7,0.05
2013-1-27,55,48,39,48,41,36,93,79,58,30.14,29.98,10,2,10,0.05
2013-1-28,57,44,37,43,38,35,94,79,52,30.27,30.12,4,0,4,0.00
2013-1-29,59,44,34,44,38,32,97,80,53,30.32,30.24,5,1,5,0.00
2013-1-30,65,47,34,46,40,33,97,79,46,30.38,30.28,4,0,4,0.00
2013-1-31,69,49,36,48,42,35,98,79,46,30.30,30.17,4,0,4,0.00
2013-2-1,69,51,38,51,45,36,98,80,51,30.25,30.12,4,0,4,0.00
2013-2-2,62,53,46,53,48,43,94,84,70,30.27,30.18,4,0,4,0.00
2013-2-3,66,52,44,54,49,42,98,87,59,30.23,30.09,4,0,4,0.00
2013-2-4,68,51,39,53,46,39,98,85,57,30.20,30.03,4,0,4,0.00
2013-2-5,68,53,40,55,48,39,99,83,59,30.09,29.96,9,1,9,0.00
2013-2-6,57,48,38,47,44,37,96,86,67,30.20,30.09,4,0,4,0.00
2013-2-7,59,44,33,48,40,32,98,86,59,30.17,29.99,4,1,4,0.00
2013-2-8,49,44,41,44,42,40,98,92,79,30.00,29.91,7,1,7,0.47
2013-2-9,57,44,36,42,37,33,96,78,43,30.11,29.97,4,1,4,0.12
2013-2-10,60,44,31,40,34,30,96,74,38,30.12,30.02,5,0,5,0.00
2013-2-11,62,45,32,38,35,30,95,71,39,30.26,30.08,6,1,6,0.00
2013-2-12,66,48,33,40,36,31,93,68,33,30.37,30.25,5,1,5,0.00
2013-2-13,66,48,33,42,38,32,96,71,37,30.34,30.20,6,1,6,0.00
2013-2-14,69,50,35,46,41,33,95,72,40,30.26,30.14,6,1,6,0.00
2013-2-15,74,54,37,50,43,36,96,70,33,30.28,30.20,6,1,6,0.00
2013-2-16,72,53,38,50,41,36,92,68,30,30.23,30.02,5,1,5,0.00
2013-2-17,72,52,38,48,42,34,90,69,39,30.03,29.92,6,1,6,0.00
2013-2-18,71,52,38,48,42,37,95,71,38,30.03,29.87,6,1,6,0.00
2013-2-19,56,47,38,43,40,35,96,78,50,29.95,29.70,8,1,8,0.66
2013-2-20,54,42,37,43,38,35,97,87,62,30.08,29.78,2,0,2,0.01
2013-2-21,59,47,38,42,38,34,90,74,45,30.18,30.02,6,1,6,0.00
2013-2-22,63,47,32,43,38,31,97,75,46,30.26,30.17,5,1,5,0.00
2013-2-23,62,48,36,45,40,35,96,75,50,30.24,30.05,10,1,10,0.00
2013-2-24,65,49,39,39,36,33,87,64,33,30.26,30.13,6,1,6,0.00
2013-2-25,68,49,34,40,37,32,96,67,31,30.28,30.11,5,1,5,0.00
2013-2-26,68,50,36,42,38,34,91,68,33,30.21,30.09,7,1,7,0.00
2013-2-27,71,52,36,44,38,33,95,64,29,30.34,30.21,5,1,5,0.00
2013-2-28,73,54,37,46,40,33,90,63,33,30.43,30.33,4,1,4,0.00
2013-3-1,76,57,40,51,44,38,92,67,36,30.42,30.21,6,1,6,0.00
2013-3-2,83,62,42,54,46,40,92,59,25,30.26,30.02,6,1,6,0.00
2013-3-3,72,62,52,49,44,39,76,52,38,30.09,29.94,8,1,8,0.00
2013-3-4,73,58,44,51,47,42,95,69,38,30.11,29.98,5,1,5,0.00
2013-3-5,74,58,44,51,45,40,91,65,41,30.06,29.87,10,1,10,0.00
2013-3-6,67,54,46,49,45,39,87,72,46,30.08,29.97,8,1,8,0.01
2013-3-7,64,53,46,48,45,43,90,75,48,29.98,29.80,7,1,7,0.01
2013-3-8,49,46,42,47,44,40,95,91,84,30.05,29.77,5,1,5,0.61
2013-3-9,60,50,45,48,44,42,95,83,58,30.32,30.05,4,1,4,0.03
2013-3-10,71,54,40,49,44,38,95,71,42,30.36,30.22,7,1,7,0.00
2013-3-11,73,55,40,53,47,39,97,77,48,30.26,30.08,4,1,4,0.00
2013-3-12,78,59,43,56,50,41,97,74,43,30.14,30.02,5,1,5,0.00
2013-3-13,87,64,46,59,53,45,97,71,31,30.17,30.00,7,1,7,0.00
2013-3-14,86,66,49,61,55,47,93,71,38,30.10,30.00,7,1,7,0.00
2013-3-15,81,66,55,61,57,53,94,75,43,30.06,29.95,5,1,5,0.00
2013-3-16,80,63,50,59,54,48,96,74,43,30.04,29.92,4,1,4,0.00
2013-3-17,76,60,47,52,49,45,95,70,40,30.08,29.96,7,1,7,0.00
2013-3-18,73,58,45,48,46,42,94,67,36,30.10,29.98,4,1,4,0.00
2013-3-19,80,63,46,50,46,40,92,59,26,30.12,30.00,8,1,8,0.00
2013-3-20,71,62,54,55,52,48,87,71,53,30.11,30.00,14,1,14,0.00
2013-3-21,57,52,49,52,49,44,96,89,64,30.04,29.95,1,0,1,0.00
2013-3-22,70,54,43,45,41,38,88,65,36,30.04,29.94,5,1,5,0.00
2013-3-23,72,54,40,58,38,32,84,58,27,30.13,30.00,5,1,5,0.00
2013-3-24,77,58,42,46,42,38,87,59,31,30.09,29.92,5,1,5,0.00
2013-3-25,79,58,45,49,45,42,89,67,31,29.98,29.85,5,0,5,0.00
2013-3-26,79,62,47,53,48,42,86,63,35,29.95,29.84,5,1,5,0.00
2013-3-27,78,64,52,53,49,45,79,61,34,29.98,29.87,6,1,6,0.00
2013-3-28,76,62,52,57,52,48,87,72,48,30.06,29.97,5,1,5,0.00
2013-3-29,83,65,48,56,51,45,90,63,30,30.08,29.93,5,1,5,0.00
2013-3-30,87,70,57,57,51,46,76,54,24,30.02,29.86,10,1,10,0.00
2013-3-31,74,65,56,57,52,48,95,66,45,30.07,29.96,7,1,7,0.11
2013-4-1,77,63,52,52,49,46,84,62,36,30.14,30.01,5,1,5,0.00
2013-4-2,78,61,48,56,50,45,92,69,35,30.14,30.01,6,1,6,0.00
2013-4-3,83,65,49,57,52,46,91,65,38,30.10,29.93,5,1,5,0.00
2013-4-4,78,66,58,59,53,43,84,65,44,30.12,29.95,6,1,6,0.00
2013-4-5,74,62,55,57,54,49,94,76,50,30.13,30.02,4,1,4,0.00
2013-4-6,77,61,46,54,50,44,96,70,37,30.17,30.01,8,1,8,0.00
2013-4-7,78,63,50,57,51,46,93,68,34,30.09,29.81,9,1,9,0.00
2013-4-8,64,55,49,50,45,41,88,69,49,29.85,29.71,16,3,16,0.00
2013-4-9,74,58,46,43,40,36,86,54,25,30.04,29.85,7,1,7,0.00
2013-4-10,84,64,45,45,40,38,81,47,20,30.15,29.98,6,1,6,0.00
2013-4-11,82,66,50,52,47,42,77,53,31,30.00,29.72,8,2,8,0.00
2013-4-12,84,67,52,54,51,47,89,59,30,29.88,29.73,5,1,5,0.00
2013-4-13,86,69,54,55,49,43,83,53,24,29.83,29.67,7,1,7,0.00
2013-4-14,79,64,51,54,46,37,85,56,28,29.84,29.70,9,2,9,0.00
2013-4-15,74,60,47,48,42,31,87,56,27,29.87,29.71,15,3,15,0.00
2013-4-16,68,54,42,42,37,33,76,55,30,30.01,29.87,10,1,10,0.00
2013-4-17,72,56,42,40,34,28,70,46,21,30.18,30.00,8,1,8,0.00
2013-4-18,80,61,43,41,35,30,74,41,17,30.26,30.14,7,1,7,0.00
2013-4-19,83,65,46,46,39,31,75,43,16,30.22,29.98,6,1,6,0.00
2013-4-20,89,69,50,56,46,39,77,48,19,30.02,29.88,4,1,4,0.00
2013-4-21,90,71,54,51,48,43,78,49,21,29.99,29.85,6,1,6,0.00
2013-4-22,91,72,54,55,49,40,81,49,18,29.91,29.74,7,1,7,0.00
2013-4-23,89,72,58,52,46,38,69,44,17,29.89,29.74,7,1,7,0.00
2013-4-24,90,72,57,52,46,42,66,43,19,29.83,29.66,8,1,8,0.00
2013-4-25,81,67,54,56,52,48,78,60,39,30.03,29.84,6,1,6,0.00
2013-4-26,86,69,54,56,52,49,83,58,32,30.14,30.02,7,1,7,0.00
2013-4-27,92,73,55,57,53,50,84,55,27,30.15,29.95,5,1,5,0.00
2013-4-28,94,76,61,61,53,47,73,49,20,29.98,29.77,6,1,6,0.00
2013-4-29,95,76,58,59,54,50,78,50,23,29.83,29.64,5,1,5,0.00
2013-4-30,89,73,58,58,52,43,79,50,22,29.76,29.65,9,2,9,0.00
2013-5-1,89,72,57,48,41,34,63,37,15,30.03,29.76,6,1,6,0.00
2013-5-2,94,74,56,49,42,27,71,38,10,30.13,29.99,6,1,6,0.00
2013-5-3,96,76,56,52,44,37,60,36,15,30.00,29.70,5,1,5,0.00
2013-5-4,98,76,58,50,43,34,69,35,12,29.72,29.47,4,1,4,0.00
2013-5-5,84,67,53,52,47,38,77,50,26,29.80,29.59,5,1,5,0.00
2013-5-6,82,69,60,51,48,46,68,50,29,29.93,29.78,6,2,6,0.00
2013-5-7,72,62,55,54,52,47,94,72,50,30.00,29.93,7,1,7,0.11
2013-5-8,80,66,54,57,53,50,90,65,39,30.07,29.97,10,1,10,0.00
2013-5-9,82,69,56,58,54,50,84,62,40,30.07,29.98,6,1,6,0.00
2013-5-10,91,74,58,61,57,53,85,60,32,30.10,29.97,6,1,6,0.00
2013-5-11,98,80,62,64,60,54,82,54,24,30.06,29.91,7,1,7,0.00
2013-5-12,101,83,67,63,59,50,71,48,19,30.05,29.85,6,1,6,0.00
2013-5-13,101,82,64,62,56,48,75,46,20,29.98,29.79,6,1,6,0.00
2013-5-14,94,85,71,56,49,38,57,32,15,29.87,29.77,9,2,9,0.00
2013-5-15,93,76,62,55,50,43,67,44,19,29.95,29.81,6,1,6,0.00
2013-5-16,76,67,56,54,50,47,74,56,43,29.96,29.85,8,2,8,0.00
2013-5-17,83,69,54,55,48,41,78,50,28,29.96,29.87,7,2,7,0.00
2013-5-18,85,68,52,48,43,36,77,46,19,30.07,29.95,7,1,7,0.00
2013-5-19,90,71,55,55,48,41,66,47,23,30.03,29.86,6,1,6,0.00
2013-5-20,96,76,56,53,48,42,77,42,17,29.95,29.81,6,1,6,0.00
2013-5-21,94,76,59,54,44,20,69,38,7,29.86,29.70,7,2,7,0.00
2013-5-22,77,63,51,46,40,28,71,44,18,29.92,29.77,7,2,7,0.00
2013-5-23,79,62,44,44,38,32,74,45,20,29.92,29.83,8,1,8,0.00
2013-5-24,85,66,48,49,42,37,69,45,21,29.97,29.82,7,1,7,0.00
2013-5-25,87,68,51,46,42,36,69,42,19,29.94,29.85,6,1,6,0.00
2013-5-26,84,68,52,52,48,44,76,51,28,30.04,29.91,7,2,7,0.00
2013-5-27,82,67,54,53,50,45,82,56,32,30.04,29.90,9,2,9,0.00
2013-5-28,84,68,55,60,54,50,87,62,34,29.94,29.77,9,2,9,0.00
2013-5-29,87,72,56,60,54,45,83,56,35,29.88,29.72,9,2,9,0.00
2013-5-30,88,68,57,58,51,47,75,57,33,29.90,29.83,4,0,4,0.00
2013-5-31,94,74,57,55,50,46,74,47,23,29.94,29.80,5,1,5,0.00
2013-6-1,101,79,62,59,54,50,71,45,21,29.85,29.67,4,0,4,0.00
2013-6-2,103,83,63,60,54,47,76,41,16,29.69,29.51,5,1,5,0.00
2013-6-3,98,81,67,58,54,50,61,42,24,29.70,29.61,6,1,6,0.00
2013-6-4,95,79,64,60,55,51,65,47,28,29.82,29.69,6,1,6,0.00
2013-6-5,96,79,64,63,59,55,76,53,31,29.90,29.74,6,1,6,0.00
2013-6-6,99,82,66,64,61,58,81,53,29,29.83,29.69,5,1,5,0.00
2013-6-7,103,85,69,68,64,59,73,52,29,29.76,29.61,8,1,8,0.00
2013-6-8,108,90,74,69,64,54,75,46,23,29.66,29.53,6,1,6,0.00
2013-6-9,104,86,73,65,58,50,57,40,23,29.71,29.60,6,1,6,0.00
2013-6-10,88,74,61,59,54,46,78,52,25,29.86,29.70,9,1,9,0.00
2013-6-11,98,78,62,62,58,53,76,53,27,29.90,29.74,6,1,6,0.00
2013-6-12,98,80,64,64,58,46,81,51,22,29.86,29.76,7,1,7,0.00
2013-6-13,91,74,58,52,45,36,67,39,15,29.99,29.85,6,1,6,0.00
2013-6-14,95,75,57,54,48,39,68,42,16,29.88,29.71,5,1,5,0.00
2013-6-15,98,78,60,52,46,37,64,36,13,29.83,29.74,6,1,6,0.00
2013-6-16,95,76,60,54,49,43,67,41,17,29.98,29.83,8,1,8,0.00
2013-6-17,95,76,59,56,50,46,66,42,23,30.00,29.83,5,1,5,0.00
2013-6-18,88,73,59,55,52,47,81,51,25,29.94,29.77,7,2,7,0.00
2013-6-19,83,69,54,53,48,44,77,51,27,29.98,29.85,7,2,7,0.00
2013-6-20,90,71,54,54,47,43,71,45,20,29.92,29.80,5,1,5,0.00
2013-6-21,92,74,56,53,49,43,73,44,19,29.90,29.77,5,1,5,0.00
2013-6-22,97,77,59,57,50,44,67,42,17,29.87,29.71,5,1,5,0.00
2013-6-23,88,74,61,57,52,47,67,47,29,29.78,29.69,8,2,8,0.00
2013-6-24,90,75,62,64,59,53,74,59,39,29.83,29.74,6,1,6,0.00
2013-6-25,96,79,65,65,61,57,79,56,33,29.93,29.80,6,1,6,0.00
2013-6-26,98,81,67,69,66,63,88,62,37,29.96,29.84,7,1,7,0.00
2013-6-27,102,84,69,70,66,64,86,58,33,29.99,29.88,6,1,6,0.00
2013-6-28,106,88,72,69,66,57,77,51,21,29.93,29.77,5,1,5,0.00
2013-6-29,108,90,75,68,64,58,67,45,23,29.83,29.67,6,1,6,0.00
2013-6-30,108,91,70,71,65,53,63,46,25,29.84,29.61,5,1,5,0.00
2013-7-1,106,88,70,71,66,53,70,50,28,29.83,29.66,4,1,4,0.00
2013-7-2,109,92,77,67,60,50,65,38,15,29.82,29.71,6,1,6,0.00
2013-7-3,105,88,76,71,62,52,67,42,29,29.80,29.63,4,0,4,0.00
2013-7-4,108,91,76,72,67,61,76,48,23,29.67,29.54,6,1,6,0.00
2013-7-5,108,91,78,71,62,52,62,40,24,29.65,29.53,6,1,6,0.00
2013-7-6,103,84,67,60,53,38,63,38,12,29.69,29.58,5,1,5,0.00
2013-7-7,107,85,67,63,53,40,60,36,16,29.74,29.63,6,1,6,0.00
2013-7-8,106,85,66,61,52,40,59,35,14,29.84,29.74,7,1,7,0.00
2013-7-9,106,86,68,65,56,48,60,40,16,29.94,29.79,5,1,5,0.00
2013-7-10,103,85,70,65,60,51,70,44,21,29.87,29.74,4,0,4,0.00
2013-7-11,100,86,75,65,57,47,61,40,20,29.82,29.71,4,1,4,0.00
2013-7-12,99,82,66,58,52,48,56,38,19,29.84,29.72,5,1,5,0.00
2013-7-13,102,87,69,59,54,49,60,36,19,29.87,29.75,6,1,6,0.00
2013-7-14,104,84,68,58,50,41,54,33,15,29.90,29.73,5,1,5,0.00
2013-7-15,99,83,68,58,51,41,53,35,20,29.80,29.64,7,1,7,0.00
2013-7-16,97,79,62,58,50,43,59,38,18,29.87,29.73,6,1,6,0.00
2013-7-17,96,78,61,62,58,51,83,54,23,30.00,29.87,7,1,7,0.00
2013-7-18,99,81,64,61,58,53,74,49,22,29.96,29.79,7,1,7,0.00
2013-7-19,101,83,66,62,55,45,65,42,17,29.85,29.69,5,1,5,0.00
2013-7-20,105,86,68,63,58,49,71,44,16,29.74,29.60,6,1,6,0.00
2013-7-21,102,87,73,65,58,51,55,39,25,29.74,29.63,5,0,5,0.00
2013-7-22,96,83,75,71,64,56,82,54,27,29.84,29.72,5,0,5,0.00
2013-7-23,100,85,72,68,62,54,78,50,28,29.90,29.79,6,1,6,0.00
2013-7-24,102,84,70,65,59,52,70,46,23,29.89,29.75,6,1,6,0.00
2013-7-25,103,87,72,67,62,58,65,46,25,29.87,29.79,7,1,7,0.00
2013-7-26,104,84,73,68,63,57,73,52,26,29.97,29.84,4,0,4,0.00
2013-7-27,101,86,75,67,62,56,67,46,23,29.90,29.69,7,1,7,0.00
2013-7-28,102,85,70,64,60,54,72,46,21,29.76,29.64,7,1,7,0.00
2013-7-29,102,84,69,63,58,52,62,44,20,29.87,29.71,6,1,6,0.00
2013-7-30,97,81,66,64,58,48,69,48,20,29.98,29.86,6,1,6,0.00
2013-7-31,98,81,65,61,57,50,67,46,21,29.98,29.82,6,1,6,0.00
2013-8-1,95,77,62,58,52,46,75,45,20,29.96,29.80,6,1,6,0.00
2013-8-2,96,76,58,54,49,38,74,43,14,29.90,29.77,6,1,6,0.00
2013-8-3,99,78,60,58,51,43,68,42,16,29.88,29.77,6,1,6,0.00
2013-8-4,100,79,62,59,51,42,58,40,18,29.90,29.78,6,1,6,0.00
2013-8-5,98,79,64,61,54,48,64,45,21,29.92,29.78,5,1,5,0.00
2013-8-6,97,79,63,60,56,50,77,50,23,29.91,29.80,6,1,6,0.00
2013-8-7,92,75,62,61,55,48,79,53,24,30.01,29.87,6,1,6,0.00
2013-8-8,90,74,60,61,57,53,87,58,31,29.95,29.78,6,1,6,0.00
2013-8-9,92,75,60,60,56,52,85,55,27,29.88,29.78,6,1,6,0.00
2013-8-10,93,76,61,60,57,53,83,55,28,29.95,29.84,8,1,8,0.00
2013-8-11,95,78,61,62,58,54,82,55,28,29.94,29.79,6,1,6,0.00
2013-8-12,98,79,63,64,58,53,77,53,24,29.91,29.79,5,1,5,0.00
2013-8-13,100,80,63,63,58,54,77,50,23,29.91,29.77,6,1,6,0.00
2013-8-14,102,82,65,63,57,50,72,48,19,29.88,29.74,4,1,4,0.00
2013-8-15,102,82,65,63,57,44,74,46,15,29.87,29.76,6,1,6,0.00
2013-8-16,102,82,67,64,60,53,73,50,21,29.89,29.78,5,1,5,0.00
2013-8-17,101,83,68,63,59,55,75,48,23,29.88,29.70,6,1,6,0.00
2013-8-18,99,81,68,65,60,57,70,50,26,29.82,29.67,5,1,5,0.00
2013-8-19,105,88,72,69,63,54,79,47,26,29.79,29.66,10,1,10,0.00
2013-8-20,104,87,75,66,57,45,48,36,22,29.78,29.65,6,1,6,0.00
2013-8-21,100,87,71,63,58,48,61,39,20,29.83,29.70,6,1,6,0.00
2013-8-22,100,82,66,61,57,50,72,47,20,29.85,29.69,6,1,6,0.00
2013-8-23,96,78,64,61,59,56,79,55,28,29.82,29.66,6,1,6,0.00
2013-8-24,97,78,62,61,56,48,78,51,20,29.80,29.67,6,1,6,0.00
2013-8-25,96,78,64,61,57,52,77,52,23,29.88,29.75,5,1,5,0.00
2013-8-26,94,78,62,64,59,54,78,54,30,29.92,29.74,5,1,5,0.00
2013-8-27,98,81,66,65,61,58,80,54,29,29.82,29.66,6,1,6,0.00
2013-8-28,99,82,67,65,61,55,75,52,28,29.83,29.72,5,1,5,0.00
2013-8-29,94,75,67,65,60,56,74,61,37,29.94,29.83,4,0,4,0.00
2013-8-30,100,87,75,66,62,59,68,45,27,29.96,29.80,4,1,4,0.00
2013-8-31,100,84,72,66,62,54,77,50,25,29.88,29.75,6,1,6,0.00
2013-9-1,96,83,72,68,64,59,76,54,32,29.85,29.74,5,1,5,0.00
2013-9-2,98,83,71,68,65,61,78,57,35,29.87,29.72,6,1,6,0.00
2013-9-3,95,82,72,68,64,61,72,57,39,29.91,29.77,5,1,5,0.00
2013-9-4,96,80,66,67,63,58,78,57,36,29.93,29.79,4,1,4,0.00
2013-9-5,95,80,66,65,61,58,78,55,34,29.91,29.79,6,1,6,0.00
2013-9-6,96,78,64,65,60,56,77,56,33,29.91,29.74,6,1,6,0.00
2013-9-7,102,82,65,66,61,53,87,55,23,29.83,29.69,6,1,6,0.00
2013-9-8,101,82,67,62,55,45,62,42,22,29.79,29.64,5,1,5,0.00
2013-9-9,99,81,67,63,57,52,72,47,22,29.73,29.59,4,1,4,0.00
2013-9-10,101,82,66,61,55,49,73,44,18,29.76,29.64,6,1,6,0.00
2013-9-11,93,76,63,61,55,49,72,50,27,29.90,29.76,4,1,4,0.00
2013-9-12,92,76,62,63,59,55,81,58,34,29.91,29.76,5,1,5,0.00
2013-9-13,96,79,64,63,60,58,84,57,29,29.80,29.63,5,1,5,0.00
2013-9-14,98,81,66,65,62,59,80,55,30,29.70,29.58,6,1,6,0.00
2013-9-15,97,80,66,65,60,54,81,55,29,29.74,29.64,6,1,6,0.00
2013-9-16,95,76,61,62,58,54,79,57,31,29.82,29.67,5,0,5,0.00
2013-9-17,89,74,63,61,55,48,81,55,29,29.78,29.68,8,1,8,0.00
2013-9-18,87,70,56,58,53,49,80,58,29,29.86,29.73,4,0,4,0.00
2013-9-19,93,74,58,58,53,51,81,54,24,29.82,29.66,4,1,4,0.00
2013-9-20,95,76,60,57,53,49,80,49,24,29.76,29.65,6,1,6,0.00
2013-9-21,85,70,58,61,54,46,81,61,31,29.83,29.70,13,2,13,0.00
2013-9-22,80,64,52,54,51,48,93,66,36,29.93,29.82,6,1,6,0.00
2013-9-23,86,67,53,57,52,48,84,62,34,29.99,29.85,5,0,5,0.00
2013-9-24,92,71,55,57,54,47,87,58,23,29.93,29.75,7,1,7,0.00
2013-9-25,76,64,54,53,48,44,85,59,34,29.88,29.69,9,2,9,0.00
2013-9-26,78,60,48,48,45,40,86,60,30,29.92,29.73,6,1,6,0.00
2013-9-27,83,63,47,48,43,38,82,52,21,30.05,29.92,5,1,5,0.00
2013-9-28,87,65,48,50,44,39,83,52,19,30.08,29.93,5,1,5,0.00
2013-9-29,90,68,51,51,44,37,78,47,17,30.07,29.94,4,0,4,0.00
2013-9-30,86,67,52,58,51,42,80,59,30,30.05,29.86,5,1,5,0.00
2013-10-1,85,69,54,61,55,49,86,65,34,29.95,29.81,4,1,4,0.00
2013-10-2,83,67,55,54,51,48,83,60,33,29.94,29.82,7,1,7,0.00
2013-10-3,77,61,49,49,46,44,85,62,33,29.98,29.85,4,0,4,0.00
2013-10-4,81,66,49,47,43,38,85,48,23,30.08,29.92,6,1,6,0.00
2013-10-5,86,64,48,49,43,35,80,51,19,30.18,30.07,6,1,6,0.00
2013-10-6,89,66,48,47,41,27,86,48,11,30.12,29.94,6,1,6,0.00
2013-10-7,88,66,53,47,41,36,67,43,17,29.95,29.79,5,0,5,0.00
2013-10-8,85,65,50,49,40,36,65,43,21,29.85,29.65,5,0,5,0.00
2013-10-9,61,57,49,49,46,42,85,68,53,29.77,29.62,4,0,4,0.00
2013-10-10,75,59,46,50,46,41,86,64,36,29.96,29.77,4,0,4,0.00
2013-10-11,79,61,46,50,46,43,92,63,30,30.04,29.90,4,1,4,0.00
2013-10-12,80,62,47,51,47,44,88,62,32,29.97,29.82,5,0,5,0.00
2013-10-13,76,60,48,51,48,43,86,66,37,30.03,29.83,6,1,6,0.00
2013-10-14,79,61,47,50,47,44,89,63,31,30.09,29.95,4,1,4,0.00
2013-10-15,81,62,47,49,45,43,88,58,27,30.02,29.90,6,1,6,0.00
2013-10-16,83,63,47,48,42,36,82,53,19,30.09,29.97,5,1,5,0.00
2013-10-17,83,62,47,48,42,37,74,52,22,30.06,29.91,4,0,4,0.00
2013-10-18,85,64,48,50,44,40,86,55,24,30.03,29.93,4,1,4,0.00
2013-10-19,85,63,47,64,45,40,82,57,24,30.06,29.93,5,0,5,0.00
2013-10-20,84,63,48,49,44,40,77,55,23,29.99,29.85,5,0,5,0.00
2013-10-21,85,64,47,51,46,41,85,58,25,29.96,29.84,4,0,4,0.00
2013-10-22,85,64,48,49,46,41,81,56,23,29.99,29.84,4,0,4,0.00
2013-10-23,81,64,51,52,47,41,78,56,29,29.92,29.81,4,0,4,0.00
2013-10-24,84,63,48,52,47,43,84,61,27,30.01,29.88,4,0,4,0.00
2013-10-25,81,62,50,53,48,44,81,63,33,30.13,30.01,4,0,4,0.00
2013-10-26,81,62,48,53,49,44,91,66,33,30.12,29.96,6,0,6,0.00
2013-10-27,82,63,49,54,49,43,88,62,32,29.98,29.65,4,0,4,0.00
2013-10-28,62,55,49,51,47,44,92,76,52,29.88,29.70,4,1,4,0.17
2013-10-29,66,54,46,50,46,42,95,77,42,30.00,29.88,5,0,5,0.00
2013-10-30,69,54,42,48,45,41,96,75,41,30.13,30.00,4,0,4,0.00
2013-10-31,71,55,43,49,46,41,95,74,43,30.18,30.05,5,0,5,0.00
2013-11-1,76,57,43,51,47,41,95,73,36,30.15,29.99,4,0,4,0.00
2013-11-2,78,58,44,49,46,42,93,69,32,30.02,29.84,4,0,4,0.00
2013-11-3,66,54,43,48,44,40,91,72,46,29.99,29.85,4,0,4,0.00
2013-11-4,66,53,44,44,39,36,83,63,34,30.04,29.86,4,0,4,0.00
2013-11-5,71,52,39,42,38,36,89,64,28,30.22,30.04,4,0,4,0.00
2013-11-6,74,54,39,43,39,35,90,63,25,30.29,30.16,5,0,5,0.00
2013-11-7,78,57,44,45,41,38,85,60,25,30.17,30.03,4,0,4,0.00
2013-11-8,75,55,42,46,41,37,85,63,28,30.07,29.93,4,0,4,0.00
2013-11-9,78,56,41,50,42,38,90,65,27,30.03,29.93,4,0,4,0.00
2013-11-10,79,57,41,47,40,36,87,60,22,30.10,29.98,4,0,4,0.00
2013-11-11,76,57,41,49,43,37,86,64,33,30.17,30.03,4,0,4,0.00
2013-11-12,67,58,50,51,47,42,86,67,51,30.26,30.12,2,0,2,0.00
2013-11-13,74,58,44,51,47,41,92,67,40,30.23,30.07,4,0,4,0.00
2013-11-14,77,57,44,48,45,41,92,67,32,30.09,29.79,4,0,4,0.00
2013-11-15,68,53,44,49,44,40,90,73,44,29.80,29.70,6,1,6,0.00
2013-11-16,70,53,42,46,43,40,93,71,38,29.91,29.75,4,0,4,0.00
2013-11-17,69,52,42,47,42,38,88,70,40,30.08,29.91,5,0,5,0.00
2013-11-18,69,53,42,46,43,39,91,71,40,30.15,30.01,4,0,4,0.00
2013-11-19,67,53,42,50,45,39,91,76,50,30.11,29.97,4,0,4,0.00
2013-11-20,70,58,51,54,50,46,95,77,49,29.98,29.81,4,0,4,0.37
2013-11-21,59,55,52,55,53,51,97,93,85,29.94,29.83,5,1,5,0.19
2013-11-22,57,52,49,52,50,47,97,93,81,30.01,29.92,2,0,2,0.00
2013-11-23,63,51,45,50,47,44,98,86,59,30.11,29.98,4,0,4,0.01
2013-11-24,66,51,40,50,45,39,98,82,49,30.25,30.10,6,0,6,0.00
2013-11-25,66,50,40,50,45,39,97,84,54,30.34,30.25,4,0,4,0.00
2013-11-26,64,51,41,51,46,40,98,86,61,30.27,30.07,4,0,4,0.00
2013-11-27,72,55,44,52,46,42,97,75,35,30.07,29.82,5,0,5,0.00
2013-11-28,68,54,45,50,45,42,91,75,44,30.05,29.85,4,0,4,0.00
2013-11-29,70,52,41,50,45,39,94,80,46,30.23,30.05,2,0,2,0.00
2013-11-30,70,51,39,48,43,38,96,78,44,30.27,30.16,4,0,4,0.00
2013-12-1,69,51,39,50,44,37,95,80,48,30.36,30.22,4,0,4,0.00
2013-12-2,70,51,40,50,44,38,97,80,47,30.25,29.93,4,0,4,0.00
2013-12-3,54,47,36,52,44,33,95,89,76,29.94,29.76,6,1,6,0.01
2013-12-4,53,38,30,34,30,25,96,75,36,30.08,29.89,4,0,4,0.00
2013-12-5,51,35,25,31,27,23,96,76,41,30.20,30.05,4,0,4,0.00
2013-12-6,52,37,25,30,28,23,95,71,40,30.25,30.12,4,0,4,0.00
2013-12-7,51,42,29,42,32,24,92,69,37,30.21,29.95,10,1,10,0.07
2013-12-8,49,35,26,33,29,24,95,80,49,30.32,30.21,4,0,4,0.00
2013-12-9,50,34,24,34,28,23,95,80,47,30.44,30.31,4,0,4,0.00
2013-12-10,53,35,24,35,28,22,95,79,47,30.44,30.23,4,0,4,0.00
2013-12-11,60,40,27,36,32,26,95,75,38,30.28,30.19,5,0,5,0.00
2013-12-12,61,41,28,38,32,26,95,74,37,30.28,30.18,4,0,4,0.00
2013-12-13,59,40,30,39,33,28,94,78,44,30.35,30.20,4,0,4,0.00
2013-12-14,62,42,30,40,34,28,94,76,41,30.43,30.33,5,0,5,0.00
2013-12-15,61,43,30,42,36,29,94,77,46,30.39,30.25,4,0,4,0.00
2013-12-16,64,46,34,44,38,32,96,78,46,30.28,30.16,4,0,4,0.00
2013-12-17,67,49,36,47,42,34,94,77,47,30.21,30.05,4,0,4,0.00
2013-12-18,67,53,47,50,45,43,87,74,49,30.05,29.73,7,0,7,0.00
2013-12-19,57,49,40,45,43,38,94,80,57,29.90,29.69,5,1,5,0.00
2013-12-20,58,46,38,42,35,30,95,69,40,30.03,29.90,4,0,4,0.00
2013-12-21,61,44,33,40,35,30,91,72,42,30.11,29.98,5,0,5,0.00
2013-12-22,65,45,32,40,35,30,95,72,36,30.33,30.10,4,0,4,0.00
2013-12-23,67,47,34,42,37,31,93,72,39,30.41,30.31,4,0,4,0.00
2013-12-24,65,47,34,43,38,32,95,75,44,30.35,30.23,4,0,4,0.00
2013-12-25,69,47,35,46,39,33,94,75,37,30.31,30.21,4,0,4,0.00
2013-12-26,68,47,34,45,38,31,92,75,42,30.31,30.18,4,0,4,0.00
2013-12-27,69,48,32,44,38,30,92,72,36,30.27,30.12,4,0,4,0.00
2013-12-28,64,47,35,44,39,33,93,77,46,30.13,30.03,4,0,4,0.00
2013-12-29,68,46,32,44,37,30,95,74,37,30.21,30.11,4,0,4,0.00
2013-12-30,73,48,32,39,34,29,90,64,22,30.26,30.18,4,0,4,0.00
2013-12-31,67,46,32,40,34,28,86,67,33,30.27,30.14,4,0,4,0.00
2014-1-1,67,46,33,41,36,30,90,70,35,30.24,30.12,4,0,4,0.00
2014-1-2,68,47,34,42,37,31,91,71,37,30.19,30.06,4,0,4,0.00